Flag for Canada Weather past 2 weeks in Whitby, Ontario, Canada

Now
28 °F

Partly sunny.


Feels Like: 18 °F
Forecast: N/A
Wind: 13 mph from Northwest

Location: Toronto Buttonville

Current Time: Dec 19, 2014 at 4:28:55 PM

Latest Report: Dec 19, 2014 at 3:00 PM


Visibility: 15 mi

Pressure: 30.21 "Hg

Humidity: 69%

Dew point: 19 °F

Location of WhitbyLocation

Historic Weather in Whitby — Graph

°F

Whitby temperature yesterday

Maximum temperature yesterday: 30 °F (at 12:00 AM)
Minimum temperature yesterday: 23 °F (at 10:00 PM)
Average temperature yesterday: 28 °F

Past Weeks' High & Low Weather Summary

 TemperatureHumidityPressure
High39 °F (Dec 6, 1:00 PM)100% (Dec 9, 8:00 AM)30.81 "Hg (Dec 9, 8:00 AM)
Low18 °F (Dec 7, 8:00 AM)40% (Dec 7, 2:00 PM)29.74 "Hg (Dec 16, 2:00 PM)
Average31 °F82%30.14 "Hg
* Reported Dec 4 3:00 PM — Dec 19 3:00 PM, Whitby, Weather by CustomWeather, © 2014

Note: Actual official high and low records may vary slightly from our data, if they occured in-between our weather recording intervals... More about our weather records

Advertising

Whitby weather history for previous 24 hours

 ConditionsComfort  
Time TempWeatherWind HumidityBarometerVisibility
3:00 PM
Dec 19
28 °FPartly sunny.13 mph69%30.21 "Hg15 mi
2:00 PM28 °FPartly sunny.13 mph69%30.20 "Hg15 mi
1:00 PM28 °FPartly sunny.9 mph69%30.19 "Hg15 mi
12:00 PM28 °FPartly sunny.9 mph69%30.20 "Hg15 mi
11:00 AM27 °FPartly sunny.9 mph69%30.22 "Hg15 mi
10:00 AM25 °FPartly sunny.12 mph74%30.22 "Hg15 mi
9:00 AM23 °FPartly sunny.10 mph80%30.21 "Hg15 mi
8:00 AM21 °FPartly sunny.7 mph80%30.20 "Hg15 mi
7:00 AM19 °FPartly cloudy.8 mph79%30.18 "Hg15 mi
6:00 AM21 °FOvercast.9 mph80%30.16 "Hg15 mi
5:00 AM21 °FOvercast.12 mph80%30.16 "Hg15 mi
4:00 AM23 °FOvercast.13 mph80%30.15 "Hg15 mi
3:00 AM21 °FOvercast.9 mph86%30.15 "Hg15 mi
2:00 AM21 °FOvercast.13 mph86%30.14 "Hg15 mi
1:00 AM21 °FOvercast.14 mph86%30.13 "Hg15 mi
12:00 AM23 °FOvercast.13 mph80%30.13 "Hg15 mi
11:00 PM
Dec 18
23 °FOvercast.10 mph80%30.13 "Hg15 mi
10:00 PM23 °FOvercast.12 mph80%30.12 "Hg12 mi
9:48 PMN/AOvercast.12 mphN/AN/A12 mi
9:00 PM25 °FOvercast.13 mph86%30.12 "Hg12 mi
8:00 PM27 °FLight snow. Overcast.10 mph86%30.12 "Hg12 mi
7:00 PM27 °FSnow flurries. Mostly cloudy.7 mph86%30.12 "Hg12 mi
6:00 PM27 °FSnow flurries. Mostly cloudy.14 mph86%30.12 "Hg11 mi
5:52 PMN/ALight snow.13 mphN/AN/A12 mi
5:00 PM28 °FSnow flurries. Overcast.8 mph74%30.11 "Hg12 mi
4:00 PM28 °FPartly sunny.9 mph74%30.10 "Hg13 mi
Weather by CustomWeather, © 2014

See weather overviewHow to use our weather pages